National Weather Service Raw Text Product

Displaying AFOS PIL: RWRIA Received: 2018-05-17 17:00 UTC


863 
ASUS43 KDMX 171706
RWRIA 

WEATHER ROUNDUP FOR IOWA
NATIONAL WEATHER SERVICE DES MOINES IA
1200 PM CDT THU MAY 17 2018

NOTE: "FAIR" INDICATES FEW OR NO CLOUDS BELOW 12,000 FEET WITH NO
SIGNIFICANT WEATHER AND/OR OBSTRUCTIONS TO VISIBILITY.

* - THESE STATIONS ARE NOT NWS STATIONS...THUS NOT UNDER NWS
QUALITY CONTROL.  THEY ALSO DO NOT REPORT WEATHER SUCH 
AS PRECIPITATION OR FOG.  

IAZ001>003-012>014-020>022-031>034-043>046-171800-
   NORTHWEST IOWA
  
CITY           SKY/WX    TMP DP  RH WIND       PRES   REMARKS
CARROLL *      SUNNY    N/A N/A N/A SE13G20   30.02F                  
CHEROKEE *     SUNNY     80  53  39 S13       30.01F HX  80           
DENISON *      SUNNY     81  54  39 SE12      30.03F HX  80           
LE MARS *      SUNNY     81  54  39 S17G24    29.99F HX  80           
ORANGE CITY *  SUNNY     81  54  39 S14G21    30.01S HX  80           
SHELDON *      SUNNY     81  54  39 S16       30.00S HX  80           
SIOUX CITY     SUNNY     81  57  43 S15       29.99F HX  81           
SPENCER        SUNNY     82  55  39 S16G23    30.02F HX  81           
STORM LAKE *   CLOUDY    81  50  34 S13G24    30.03S HX  80           
$$
 
IAZ055>058-069>071-079>083-090>094-171800-
   SOUTHWEST IOWA
  
CITY           SKY/WX    TMP DP  RH WIND       PRES   REMARKS
ATLANTIC *     SUNNY     81  50  34 SE13G18   30.01F HX  80           
AUDUBON *      SUNNY     79  54  41 SE16G25   30.03F                  
CLARINDA *     SUNNY     79  52  38 SE8       30.02F                  
COUNCIL BLFS * MOSUNNY   79  57  47 S6G20     30.01F HX  80           
CRESTON *      SUNNY     79  50  36 E12G21    30.04F                  
HARLAN  *      MOSUNNY   81  50  34 SE17G23   30.04F HX  80           
LAMONI         MOSUNNY   78  58  49 E7        30.02F                  
RED OAK *      SUNNY     79  54  41 SE8G14    30.01F                  
SHENANDOAH *   SUNNY     81  55  41 SE9       30.00F HX  80           
$$
 
IAZ047>049-059>061-072>074-084-171800-
   CENTRAL IOWA
  
CITY           SKY/WX    TMP DP  RH WIND       PRES   REMARKS
AMES           SUNNY     80  57  45 S10       30.03F HX  80           
ANKENY *       SUNNY     81  55  41 SE10      30.04F HX  80           
BOONE *        MOSUNNY   81  52  36 SE10      30.03S HX  80           
CHARITON *     MOSUNNY   79  54  41 SE13      30.03F                  
DES MOINES     PTSUNNY   79  54  41 SE9       30.03F                  
GRINNELL*      CLOUDY    79  51  37 E10G16    30.05F                  
KNOXVILLE *    MOSUNNY   79  50  36 SE13      30.02F                  
MARSHALLTOWN   CLOUDY    79  57  46 SW5       30.03F HX  80           
NEWTON *       PTSUNNY   77  52  41 SE9       30.04F                  
PELLA *        CLOUDY    80  47  31 E7        30.04F                  
PERRY *        FAIR      77  46  33 E12       30.03F                  
$$
 
IAZ004>006-015-016-023>025-035-036-171800-
   NORTH CENTRAL IOWA
  
CITY           SKY/WX    TMP DP  RH WIND       PRES   REMARKS
ALGONA *       SUNNY     81  54  39 S10       30.04S HX  80           
CLARION *      SUNNY     81  50  34 S6G15     30.05S HX  80           
ESTHERVILLE    MOSUNNY   78  55  44 S13G18    30.02S                  
FORT DODGE *   MOSUNNY   80  55  42 S9        30.04S HX  80           
MASON CITY     MOSUNNY   79  54  41 VRB7      30.06S                  
FOREST CITY *  FAIR      79  54  41 CALM      30.04F                  
WEBSTER CITY * PTSUNNY   81  54  39 SE10      30.02F HX  80           
IOWA FALLS *   FAIR      80  53  39 CALM      30.05F HX  80           
$$

IAZ007>011-017>019-026>030-037>042-050>054-066-171800-
   NORTHEAST IOWA
  
CITY           SKY/WX    TMP DP  RH WIND       PRES   REMARKS
CEDAR RAPIDS   FAIR      77  56  48 SE5       30.04F                  
CHARLES CITY * FAIR      81  52  36 CALM      30.06S HX  80           
CLINTON *      FAIR      79  56  45 VRB5      30.05F HX  80           
DECORAH *      FAIR      79  52  38 VRB5      30.05S                  
DUBUQUE        FAIR      77  56  48 N3        30.06F                  
MONTICELLO *   FAIR      79  54  41 VRB3      30.04F                  
OELWEIN *      FAIR      82  46  28 SE8G18    30.05S HX  81           
WATERLOO       FAIR      82  55  39 CALM      30.03F HX  81           
$$
 
IAZ064-065-067-068-078-171800-
   EAST CENTRAL IOWA
  
CITY           SKY/WX    TMP DP  RH WIND       PRES   REMARKS
DAVENPORT      FAIR      79  54  41 E8        30.06F                  
IOWA CITY      FAIR      79  55  43 S5        30.05F                  
MT. PLEASANT * SUNNY     79  48  34 E14G21    30.03F                  
MUSCATINE *    FAIR      79  55  44 NE7       30.04F                  
QUAD CITIES    FAIR      80  52  37 CALM      30.03F HX  80           
$$
 
IAZ062-063-075>077-085>089-095>099-171800-
   SOUTHEAST IOWA
  
CITY           SKY/WX    TMP DP  RH WIND       PRES   REMARKS
BURLINGTON     PTSUNNY   78  54  43 E7        30.02F                  
FAIRFIELD *    MOSUNNY   77  55  47 E10       30.03F                  
FORT MADISON * PTSUNNY   79  55  44 E5        30.03F                  
KEOKUK *       CLOUDY    79  52  38 E10G16    30.01F                  
OSKALOOSA *    FAIR      80  53  38 E14       30.04F HX  80           
CENTERVILLE *    N/A     81  55  41 E12       30.03F HX  80           
OTTUMWA        MOSUNNY   79  53  40 E15G23    30.03F                  
WASHINGTON *   MOSUNNY   81  55  41 E9        30.05F HX  80           
$$

ABBREVIATIONS USED IN REMARKS
   TC - TEMPERATURES IN CELSIUS
  WCI - WIND CHILL INDEX
   HX - HEAT INDEX
  VSB - VISIBILITY  
$$

  

317 
ASUS43 KDMX 171701
RWRIA 

WEATHER ROUNDUP FOR IOWA
NATIONAL WEATHER SERVICE DES MOINES IA
1200 PM CDT THU MAY 17 2018

NOTE: "FAIR" INDICATES FEW OR NO CLOUDS BELOW 12,000 FEET WITH NO
SIGNIFICANT WEATHER AND/OR OBSTRUCTIONS TO VISIBILITY.

* - THESE STATIONS ARE NOT NWS STATIONS...THUS NOT UNDER NWS
QUALITY CONTROL.  THEY ALSO DO NOT REPORT WEATHER SUCH 
AS PRECIPITATION OR FOG.  

IAZ001>003-012>014-020>022-031>034-043>046-171800-
   NORTHWEST IOWA
  
CITY           SKY/WX    TMP DP  RH WIND       PRES   REMARKS
CARROLL *      SUNNY    N/A N/A N/A SE13G20   30.02F                  
CHEROKEE *     SUNNY     80  53  39 S13       30.01F HX  80           
DENISON *      SUNNY     81  54  39 SE12      30.03F HX  80           
LE MARS *      SUNNY     81  54  39 S17G24    29.99F HX  80           
ORANGE CITY *  SUNNY     81  54  39 S14G21    30.01S HX  80           
SHELDON *      SUNNY     81  54  39 S16       30.00S HX  80           
SIOUX CITY     SUNNY     81  57  43 S15       29.99F HX  81           
SPENCER        SUNNY     82  55  39 S16G23    30.02F HX  81           
STORM LAKE *   CLOUDY    81  50  34 S13G24    30.03S HX  80           
$$
 
IAZ055>058-069>071-079>083-090>094-171800-
   SOUTHWEST IOWA
  
CITY           SKY/WX    TMP DP  RH WIND       PRES   REMARKS
ATLANTIC *     SUNNY     81  50  34 SE13G18   30.01F HX  80           
AUDUBON *      SUNNY     79  54  41 SE16G25   30.03F                  
CLARINDA *     SUNNY     79  52  38 SE8       30.02F                  
COUNCIL BLFS * MOSUNNY   79  57  47 S6G20     30.01F HX  80           
CRESTON *      SUNNY     79  50  36 E12G21    30.04F                  
HARLAN  *      MOSUNNY   81  50  34 SE17G23   30.04F HX  80           
LAMONI         MOSUNNY   78  58  49 E7        30.02F                  
RED OAK *      SUNNY     79  54  41 SE8G14    30.01F                  
SHENANDOAH *   SUNNY     81  55  41 SE9       30.00F HX  80           
$$
 
IAZ047>049-059>061-072>074-084-171800-
   CENTRAL IOWA
  
CITY           SKY/WX    TMP DP  RH WIND       PRES   REMARKS
AMES           SUNNY     80  57  45 S10       30.03F HX  80           
ANKENY *       SUNNY     81  55  41 SE10      30.04F HX  80           
BOONE *        MOSUNNY   81  52  36 SE10      30.03S HX  80           
CHARITON *     MOSUNNY   79  54  41 SE13      30.03F                  
DES MOINES     PTSUNNY   79  54  41 SE9       30.03F                  
GRINNELL*      CLOUDY    79  51  37 E10G16    30.05F                  
KNOXVILLE *    MOSUNNY   79  50  36 SE13      30.02F                  
MARSHALLTOWN   CLOUDY    79  57  46 SW5       30.03F HX  80           
NEWTON *       PTSUNNY   77  52  41 SE9       30.04F                  
PELLA *        CLOUDY    80  47  31 E7        30.04F                  
PERRY *        FAIR      77  46  33 E12       30.03F                  
$$
 
IAZ004>006-015-016-023>025-035-036-171800-
   NORTH CENTRAL IOWA
  
CITY           SKY/WX    TMP DP  RH WIND       PRES   REMARKS
ALGONA *       SUNNY     81  54  39 S10       30.04S HX  80           
CLARION *      SUNNY     81  50  34 S6G15     30.05S HX  80           
ESTHERVILLE    MOSUNNY   78  55  44 S13G18    30.02S                  
FORT DODGE *   MOSUNNY   80  55  42 S9        30.04S HX  80           
MASON CITY     MOSUNNY   79  54  41 VRB7      30.06S                  
FOREST CITY *  FAIR      79  54  41 CALM      30.04F                  
WEBSTER CITY * PTSUNNY   81  54  39 SE10      30.02F HX  80           
IOWA FALLS *   FAIR      80  53  39 CALM      30.05F HX  80           
$$

IAZ007>011-017>019-026>030-037>042-050>054-066-171800-
   NORTHEAST IOWA
  
CITY           SKY/WX    TMP DP  RH WIND       PRES   REMARKS
CEDAR RAPIDS   FAIR      77  56  48 SE5       30.04F                  
CHARLES CITY * FAIR      81  52  36 CALM      30.06S HX  80           
CLINTON *      FAIR      79  56  45 VRB5      30.05F HX  80           
DECORAH *      FAIR      79  52  38 VRB5      30.05S                  
DUBUQUE        FAIR      77  56  48 N3        30.06F                  
MONTICELLO *   FAIR      79  54  41 VRB3      30.04F                  
OELWEIN *      FAIR      82  46  28 SE8G18    30.05S HX  81           
WATERLOO       FAIR      82  55  39 CALM      30.03F HX  81           
$$
 
IAZ064-065-067-068-078-171800-
   EAST CENTRAL IOWA
  
CITY           SKY/WX    TMP DP  RH WIND       PRES   REMARKS
DAVENPORT      FAIR      79  54  41 E8        30.06F                  
IOWA CITY      FAIR      79  55  43 S5        30.05F                  
MUSCATINE *    FAIR      79  55  44 NE7       30.04F                  
QUAD CITIES    FAIR      80  52  37 CALM      30.03F HX  80           
$$
 
IAZ062-063-075>077-085>089-095>099-171800-
   SOUTHEAST IOWA
  
CITY           SKY/WX    TMP DP  RH WIND       PRES   REMARKS
BURLINGTON     PTSUNNY   78  54  43 E7        30.02F                  
FAIRFIELD *    MOSUNNY   77  55  47 E10       30.03F                  
FORT MADISON * PTSUNNY   79  55  44 E5        30.03F                  
KEOKUK *       CLOUDY    79  52  38 E10G16    30.01F                  
OSKALOOSA *    FAIR      80  53  38 E14       30.04F HX  80           
CENTERVILLE *    N/A     81  55  41 E12       30.03F HX  80           
OTTUMWA        MOSUNNY   79  53  40 E15G23    30.03F                  
WASHINGTON *   MOSUNNY   81  55  41 E9        30.05F HX  80           
$$

ABBREVIATIONS USED IN REMARKS
   TC - TEMPERATURES IN CELSIUS
  WCI - WIND CHILL INDEX
   HX - HEAT INDEX
  VSB - VISIBILITY  
$$